Theta_e
348 349 349 348 348 346 345 344 344 344 343 343 342 341 341 341 341 341 342 341 341 339 339 340 341 341 341 342 341 342 342 342 343 344 343 342 342 342 341 341 340 339 339 339 338 336 336 337 337 337 336 334 335 336 339 341 342 342 340 338 337 338 337 333 334 333 338 343 342 341 343 347 343 347 346 351 358 358 355 358 359 357 356 356 358
347 349 348 347 346 346 346 344 343 344 343 342 341 340 340 339 341 342 340 341 340 338 339 339 340 341 341 343 343 343 343 344 341 341 340 341 342 340 338 340 339 338 338 337 335 334 334 334 333 334 336 334 334 335 335 334 336 337 338 337 337 336 339 334 331 334 332 340 340 344 342 343 341 348 345 346 352 357 359 358 360 361 358 356 354
347 350 348 347 346 345 343 342 342 342 341 340 337 337 336 337 338 338 338 338 340 339 338 339 340 341 342 343 343 343 343 344 341 340 339 341 341 340 339 339 338 337 336 334 333 334 333 333 333 334 333 332 332 332 333 333 334 336 337 338 337 338 338 338 335 330 333 336 341 341 342 344 342 344 348 348 354 356 354 359 358 357 357 359 357
341 348 348 346 345 343 342 342 341 339 336 338 336 335 334 334 337 336 337 335 335 339 339 340 339 340 340 342 343 345 344 345 345 341 339 340 341 341 341 339 337 336 335 334 333 333 332 332 332 331 330 328 328 329 330 331 331 332 336 338 338 339 340 338 336 334 334 335 339 340 341 342 344 347 347 349 348 354 356 359 361 359 359 357 359
336 342 346 344 343 342 341 340 340 340 338 334 334 333 332 332 333 333 334 334 335 336 337 338 338 338 339 342 342 342 343 342 340 339 341 342 342 340 341 339 337 336 335 334 333 332 332 334 331 330 329 326 327 327 328 328 329 330 333 334 337 337 337 338 338 339 334 334 337 341 342 343 344 346 348 346 348 355 353 352 354 358 357 357 356
337 338 338 339 340 340 341 340 338 338 336 335 334 335 335 335 334 333 333 331 333 331 333 334 335 336 338 342 345 345 345 344 346 345 344 341 340 340 339 337 336 336 335 332 332 333 333 333 330 330 328 327 326 326 325 324 324 326 328 332 333 334 338 337 337 335 335 336 338 337 342 340 343 345 347 348 346 348 350 351 351 356 354 354 355
340 339 337 334 337 337 338 339 340 337 338 337 338 336 335 334 334 333 333 333 332 331 332 334 335 335 337 340 340 340 343 342 343 345 344 344 342 341 339 338 337 335 333 332 332 333 334 333 330 329 329 327 325 324 323 323 323 324 326 330 332 333 334 338 336 333 335 337 338 338 337 341 342 340 346 353 350 350 346 345 342 354 356 355 353
341 339 338 337 337 336 338 338 339 338 338 339 339 338 337 337 338 337 336 334 331 331 331 331 332 334 335 336 337 339 339 340 342 342 342 342 341 339 338 336 335 333 333 333 333 332 332 331 329 330 329 328 327 326 324 323 323 323 324 327 331 332 330 332 334 333 332 336 336 336 337 338 339 341 347 344 348 347 347 343 341 344 350 353 354
342 340 340 339 339 339 339 340 339 339 338 339 338 338 338 338 337 337 336 334 333 331 332 332 334 334 335 336 338 339 340 340 341 342 341 342 338 334 334 334 333 333 333 333 333 333 331 331 330 329 330 322 316 316 316 315 321 322 322 323 324 326 330 330 331 335 336 336 334 337 336 338 337 338 340 340 338 341 347 346 343 345 348 349 352
344 342 339 339 340 341 340 340 339 339 339 338 338 338 337 337 336 335 334 333 334 334 335 335 333 333 333 335 338 338 340 340 337 333 334 340 337 335 334 334 333 334 333 333 334 332 331 330 331 326 318 318 318 317 315 316 315 319 321 321 321 322 324 327 329 330 332 336 335 334 335 332 334 336 337 341 343 347 348 348 344 343 348 347 351
344 343 341 340 340 341 341 340 340 339 339 339 338 338 338 337 337 335 334 334 335 336 335 333 332 333 333 334 336 337 337 338 330 329 329 331 336 336 334 333 333 332 332 334 334 333 331 330 331 329 327 324 328 320 319 317 317 315 314 314 315 319 321 323 327 331 329 331 332 335 335 332 335 338 339 341 341 342 343 341 343 344 341 339 341
344 344 342 341 340 340 339 339 339 338 339 339 339 339 338 337 336 335 334 333 334 334 333 333 334 334 335 336 336 336 336 335 323 326 329 328 331 336 334 332 331 331 331 332 334 334 332 331 331 332 332 332 330 328 326 321 317 316 314 314 315 315 315 323 325 328 330 330 332 334 335 334 335 339 338 340 340 342 346 346 345 343 342 341 342
345 344 342 341 340 340 340 339 338 338 339 339 339 338 338 336 335 334 332 333 334 334 334 333 333 335 335 335 335 335 335 329 322 325 327 326 327 331 334 334 331 330 331 333 333 333 334 332 332 332 333 326 331 330 329 328 320 316 315 316 317 317 320 318 317 327 331 333 331 333 335 335 335 337 339 340 342 339 344 341 343 343 343 342 343
344 343 342 341 340 340 339 339 338 339 339 339 339 338 337 336 334 333 332 333 334 333 333 332 332 333 333 333 333 333 334 330 322 323 323 324 325 328 335 334 333 333 333 332 332 335 334 333 331 331 332 333 332 331 329 326 325 324 323 324 324 324 319 319 317 314 319 330 333 332 336 338 337 340 343 344 343 341 341 340 343 342 346 343 347
343 343 341 341 340 339 338 338 338 339 339 339 339 338 337 336 334 333 332 331 332 334 332 331 332 332 331 330 331 331 333 323 320 321 320 320 321 325 335 335 333 335 333 333 333 333 334 334 333 332 333 332 332 328 327 326 323 321 323 323 323 325 326 327 328 330 332 329 331 334 336 340 342 341 342 346 347 348 345 343 345 347 346 349 348
342 341 339 340 339 339 338 339 339 339 339 339 338 337 337 336 334 334 333 332 334 333 332 332 330 330 331 331 331 331 331 320 319 319 318 318 321 333 335 335 334 334 334 333 332 336 336 336 334 333 333 332 324 318 319 322 320 321 323 322 322 323 325 319 320 322 325 330 334 336 337 338 332 343 344 343 347 350 346 345 348 349 344 341 340
342 340 339 338 339 339 339 338 339 339 339 338 339 338 336 335 334 335 333 332 332 331 331 330 332 330 332 332 331 332 333 326 316 316 316 317 320 336 335 335 334 330 332 333 333 336 337 337 335 334 333 332 323 318 317 312 319 321 323 322 321 322 323 326 321 318 318 316 315 318 322 324 324 323 324 327 339 344 346 344 339 338 339 334 337
341 340 338 338 339 339 340 339 339 338 339 337 337 337 335 335 334 334 331 330 329 331 331 331 333 333 331 331 330 330 328 325 313 311 311 314 323 335 334 334 332 333 330 331 332 335 337 334 333 333 333 332 320 317 315 315 319 320 321 321 320 321 322 324 325 325 319 318 318 319 320 323 323 324 323 322 323 330 343 337 339 341 337 338 333
340 339 339 339 339 339 339 339 339 337 337 337 337 335 335 335 334 334 332 333 333 333 332 331 331 332 329 330 331 327 329 327 310 310 310 314 322 337 335 334 331 330 328 329 331 330 331 333 333 330 329 326 316 313 312 312 317 318 320 320 320 320 321 322 322 322 324 327 330 336 331 326 332 337 338 323 322 327 343 343 343 342 336 339 336
341 341 341 340 339 340 340 340 340 338 337 337 337 336 336 334 333 333 332 331 330 331 330 330 329 330 332 330 329 329 331 331 330 309 311 312 315 330 335 332 329 328 328 328 328 329 329 331 331 323 316 313 309 308 308 307 312 317 320 322 320 320 324 321 321 321 324 328 330 332 336 339 338 338 339 340 337 337 340 343 341 340 338 336 335
343 342 342 339 339 340 341 341 339 338 337 336 336 336 335 334 335 334 330 330 330 331 330 330 329 330 331 332 332 333 331 333 330 312 309 312 312 317 330 329 330 329 328 326 326 325 326 327 329 325 315 309 307 306 304 305 306 316 322 324 323 321 314 319 323 320 328 330 333 334 336 339 339 339 338 339 339 339 339 339 339 340 338 338 337
343 343 343 341 339 339 340 342 340 338 338 338 337 336 336 336 335 333 330 332 332 331 332 331 330 330 331 332 333 334 335 335 335 315 309 307 307 309 322 327 327 325 324 325 326 326 327 327 330 325 311 309 306 303 302 304 307 317 324 313 309 311 318 324 326 326 326 328 329 333 336 337 336 337 337 338 338 339 340 340 339 340 342 341 340
343 343 343 341 342 340 341 340 339 338 338 338 336 336 338 338 337 337 335 333 331 330 331 331 330 329 331 332 331 331 334 338 326 331 309 309 305 307 308 315 316 323 325 325 326 326 328 330 330 320 311 306 302 302 302 304 307 321 310 308 310 312 317 326 325 325 324 324 327 327 329 334 337 337 336 337 339 340 339 340 341 341 342 343 344
344 344 344 344 343 341 340 339 339 339 339 338 337 337 337 338 338 337 336 332 331 330 329 330 332 329 327 326 330 329 334 338 327 325 326 313 309 306 306 306 308 320 324 324 325 326 328 329 327 312 305 302 302 303 305 306 317 308 307 310 312 316 327 326 324 324 323 322 322 323 325 328 331 337 338 339 338 342 341 340 341 342 342 341 342
343 344 344 344 343 341 340 339 338 338 338 338 337 336 337 338 336 337 335 334 332 330 330 331 329 330 327 326 327 329 330 333 334 329 323 322 316 312 309 308 309 308 319 326 329 328 321 311 307 306 307 306 305 306 312 317 314 312 312 312 318 328 327 325 325 324 322 320 320 322 324 325 327 330 339 344 343 344 344 343 343 343 343 343 344
343 344 345 342 341 341 339 337 338 338 338 338 336 337 334 335 335 332 332 333 329 330 329 331 329 327 326 329 325 328 327 327 333 331 327 325 320 317 313 313 314 314 315 324 317 314 311 309 309 310 311 315 327 332 326 326 317 317 317 320 329 327 326 326 324 322 321 321 321 321 323 325 327 330 335 343 342 341 340 339 341 340 340 343 344
344 344 342 339 341 340 338 336 335 338 339 337 333 333 334 335 334 333 332 330 327 327 329 327 326 324 331 325 325 326 327 327 329 326 324 323 323 322 323 324 321 319 327 328 324 325 324 321 323 316 314 314 317 317 320 321 323 326 328 328 329 328 326 326 325 322 321 322 322 323 324 325 326 328 329 338 340 344 346 342 341 339 339 342 343
343 343 342 341 339 338 337 336 336 335 335 332 331 334 336 336 334 330 329 328 326 327 328 326 326 327 327 325 326 327 324 325 325 319 316 316 315 317 320 323 323 323 323 324 321 321 323 318 322 330 335 333 331 329 326 323 326 326 327 327 326 327 327 327 328 327 326 325 325 325 324 323 322 325 327 329 336 338 340 338 338 339 343 343 339
342 341 340 339 336 336 335 337 338 334 332 332 334 332 330 336 335 331 327 328 329 331 328 325 325 326 325 325 325 323 324 323 318 303 307 300 303 309 315 318 317 317 313 306 311 316 324 326 323 322 322 321 322 323 325 325 325 326 324 324 324 324 323 323 323 323 325 325 323 322 322 322 321 324 325 325 325 333 337 337 341 342 340 341 339
339 337 333 332 333 333 334 333 333 332 333 332 330 321 306 298 308 332 322 306 301 301 308 323 319 324 323 327 325 321 319 316 300 296 295 294 294 294 295 295 295 303 303 302 304 312 323 322 320 320 320 320 319 319 319 320 320 320 322 319 322 321 320 320 320 324 324 324 323 321 321 322 321 321 322 322 324 324 323 326 334 336 336 337 334
333 331 330 330 329 331 330 335 329 333 330 330 330 328 323 316 297 297 304 304 299 295 294 295 298 301 315 323 314 302 304 300 296 295 294 294 293 293 292 293 294 295 297 306 320 327 321 319 319 319 319 319 318 317 318 317 317 318 318 318 319 318 317 318 317 320 322 321 322 321 321 321 321 320 320 322 323 323 324 323 322 322 324 327 328
333 331 329 329 335 332 331 329 331 330 329 330 332 331 326 322 315 298 295 298 298 295 294 294 294 295 296 302 310 318 308 300 296 294 294 294 294 293 292 292 293 294 297 299 319 322 321 319 317 317 317 316 316 317 316 315 315 315 315 315 314 315 317 315 315 320 320 319 320 318 320 321 321 321 321 321 321 323 322 320 319 318 318 318 318
333 331 332 331 333 333 332 332 331 329 329 330 331 327 329 324 321 315 309 296 294 294 295 295 294 296 296 294 293 296 297 295 294 295 295 295 294 294 292 292 292 294 303 318 321 319 320 318 316 316 315 314 314 315 315 315 315 314 313 313 312 313 315 315 317 318 320 319 319 319 318 320 321 321 321 320 321 321 321 321 321 320 319 317 318
334 334 332 333 332 333 330 331 331 331 330 331 334 328 327 325 323 320 316 314 312 303 296 294 295 294 294 296 297 296 295 294 295 295 295 296 295 295 295 312 306 297 304 319 317 317 316 316 314 314 313 312 311 312 312 313 314 313 313 313 312 312 313 314 315 316 319 318 318 318 318 320 320 321 321 321 321 321 321 320 321 320 319 320 319
333 331 331 331 329 328 328 329 329 332 328 332 332 330 328 328 328 324 322 318 317 317 314 313 300 293 306 299 296 294 295 294 296 296 296 297 297 296 297 320 320 319 319 320 318 316 314 314 313 312 312 310 310 310 309 310 311 311 311 312 311 310 311 311 310 315 316 316 316 317 318 318 319 319 320 320 320 319 320 320 320 321 321 321 319
331 330 330 331 333 332 331 330 329 330 331 331 333 329 329 328 327 325 324 323 323 320 318 317 316 306 298 301 299 299 296 295 297 297 297 299 298 298 321 317 316 314 315 316 316 315 314 312 312 311 310 309 309 308 308 307 308 308 309 310 309 308 308 308 308 311 313 314 315 316 315 319 320 319 321 320 319 320 321 321 321 321 321 321 321
329 329 329 330 331 330 330 331 331 330 328 328 328 328 327 327 328 329 328 325 324 323 321 317 315 312 309 313 306 300 298 296 298 299 297 299 300 315 317 315 313 313 312 312 313 313 312 311 311 310 309 308 307 306 306 305 305 306 305 307 307 306 305 307 307 309 309 311 312 313 314 316 318 318 320 318 318 319 320 321 322 322 321 320 320
332 331 332 330 330 331 330 328 328 325 328 326 327 327 325 324 324 322 321 320 319 320 318 316 314 313 314 313 316 317 315 300 295 298 299 301 311 315 314 312 311 311 310 310 311 311 308 309 310 309 309 308 307 306 304 304 303 304 305 306 306 305 302 305 306 306 308 308 309 310 311 313 315 314 315 317 318 317 317 319 320 321 322 322 320
330 322 319 321 322 325 328 326 327 327 326 325 327 326 322 320 319 319 318 319 319 317 315 313 311 312 312 312 312 314 315 315 312 312 312 312 312 312 312 311 310 308 307 307 307 308 308 307 308 308 308 308 308 307 306 304 303 303 304 304 305 304 303 302 302 303 305 305 306 307 308 310 312 313 313 314 314 317 318 318 318 320 320 320 321
327 326 323 320 323 324 325 325 325 326 328 322 321 322 321 318 317 316 317 316 315 316 316 314 313 309 309 309 309 309 311 312 310 311 311 310 310 310 310 309 309 308 307 306 306 306 307 306 307 306 306 307 306 306 305 305 304 303 302 302 301 302 302 302 301 301 302 303 304 305 306 307 310 312 312 313 312 313 314 316 317 317 318 320 321
327 326 324 321 320 323 324 324 322 323 322 321 321 320 318 317 316 316 315 314 315 314 314 311 310 308 306 303 297 297 310 310 309 309 309 308 308 308 308 308 308 309 308 306 306 307 306 305 304 304 304 304 305 304 304 303 302 302 301 300 300 301 300 300 300 300 301 302 303 304 305 305 307 308 309 312 309 311 312 314 315 317 317 318 317
327 324 324 323 324 324 323 321 321 321 320 320 319 319 317 319 318 319 317 315 314 313 309 308 308 308 302 295 296 294 307 310 309 308 308 307 307 307 306 306 306 307 307 306 305 306 306 305 304 302 302 302 302 302 302 302 301 301 300 300 299 299 299 299 299 299 300 300 301 303 304 305 305 306 307 305 311 312 312 311 311 313 314 316 316
326 323 322 321 321 322 321 320 320 318 318 318 318 317 319 319 316 316 315 313 312 311 310 309 308 308 306 302 302 299 309 308 307 307 307 306 306 305 304 303 303 304 304 304 304 304 304 303 303 302 302 302 302 302 301 301 300 299 298 298 297 296 297 298 298 298 298 299 300 301 303 304 306 306 306 306 308 310 310 310 310 310 311 313 314
322 321 321 319 320 319 320 320 318 318 316 316 316 316 315 316 315 313 311 310 309 310 309 309 309 307 307 306 305 306 306 306 306 306 305 305 305 304 303 302 303 302 302 303 302 302 303 303 303 303 303 302 303 302 301 301 299 298 296 296 296 295 295 296 298 298 298 299 300 300 301 303 305 305 305 306 306 307 308 309 309 309 309 309 310
320 319 318 318 318 318 318 318 316 316 314 312 312 311 312 311 311 312 310 309 309 309 309 309 308 308 307 307 307 306 305 305 305 305 305 304 304 304 303 303 303 304 303 303 303 303 303 302 302 302 302 301 301 302 300 300 299 297 296 294 294 294 293 294 297 298 299 300 300 301 300 301 302 303 304 305 305 306 306 307 307 308 307 307 307
319 319 317 317 317 316 316 316 315 313 312 312 312 313 312 312 312 310 309 309 309 308 308 308 308 307 306 306 306 305 305 305 305 304 304 304 305 304 305 305 305 305 304 305 304 304 303 302 302 301 301 301 300 300 299 299 298 297 296 294 293 293 293 294 296 298 299 300 301 301 301 301 301 302 303 303 304 305 305 306 307 307 306 306 306
317 317 315 315 313 314 314 314 312 312 312 311 311 310 309 310 309 309 309 308 308 309 308 307 306 305 305 306 305 305 306 305 305 304 304 304 304 305 305 306 305 304 303 303 303 302 302 302 301 301 300 301 301 299 298 297 297 296 295 293 292 292 292 292 295 297 298 299 300 301 301 301 302 301 301 302 302 302 303 304 304 305 306 306 305
314 313 312 311 311 310 310 310 310 309 309 309 309 308 308 309 308 308 309 308 306 307 307 307 307 306 306 306 306 306 306 306 305 306 305 304 304 304 305 305 304 303 303 302 302 301 300 300 301 301 301 300 300 299 298 297 296 295 293 292 291 290 289 289 294 296 295 296 300 302 301 302 302 302 300 301 301 300 300 301 302 303 304 304 304
315 313 312 312 312 312 312 311 311 309 310 310 310 309 308 308 307 308 307 307 307 307 307 306 306 306 306 306 306 306 306 306 305 305 305 305 305 305 304 304 302 301 302 301 301 301 301 300 300 300 300 300 300 299 298 296 294 293 292 291 289 286 286 287 291 293 291 296 299 302 302 302 302 302 300 300 302 301 300 301 302 301 302 302 302
314 314 313 313 312 311 311 311 311 309 309 309 308 307 307 307 306 307 307 307 307 306 306 306 306 306 306 304 305 305 305 304 303 304 304 304 304 304 303 303 303 302 302 300 300 300 300 300 300 299 299 300 300 300 297 295 293 292 292 290 285 285 285 286 289 290 291 294 296 300 302 302 302 302 299 298 301 301 300 301 301 301 300 301 301
311 310 311 311 310 311 310 310 309 308 308 307 308 307 306 306 306 306 306 306 306 306 306 305 305 305 305 305 304 304 303 304 304 303 303 303 302 302 302 302 301 301 301 301 301 300 300 300 299 299 299 299 299 299 297 294 293 292 287 285 284 285 286 287 289 288 288 289 295 300 301 301 301 301 300 297 299 300 300 301 301 301 301 300 300
Wind_Speed
8 6 6 6 6 5 5 5 5 5 5 5 6 6 6 6 6 6 6 7 7 7 7 7 8 7 7 7 7 7 7 7 6 6 5 6 6 7 8 8 8 8 8 9 10 10 10 11 12 12 13 14 12 12 12 10 9 9 9 12 13 12 12 14 16 15 11 9 10 11 11 11 12 11 11 10 8 5 10 11 12 12 11 11 10
8 7 6 5 6 5 6 5 5 5 5 5 6 6 6 7 7 7 7 7 7 7 7 7 7 8 8 8 7 7 7 7 6 6 6 7 7 6 7 8 9 10 9 10 10 9 10 11 12 13 13 14 14 15 14 14 13 11 11 11 12 13 13 10 16 16 15 9 11 12 13 13 12 10 12 12 11 9 9 9 9 11 10 10 12
10 8 6 6 6 5 5 5 5 6 6 6 7 7 8 7 5 6 7 7 6 6 7 8 8 8 8 8 8 7 7 7 6 6 7 8 7 7 7 8 9 10 10 10 10 10 11 11 12 12 12 15 15 15 15 15 14 13 14 11 12 12 13 12 11 14 16 12 11 12 12 11 13 12 13 12 10 11 13 12 10 9 9 9 9
8 9 7 6 6 6 5 5 6 6 7 6 7 7 7 8 8 6 6 7 7 7 7 7 7 8 9 9 8 8 7 7 7 7 8 8 8 8 8 8 8 9 10 10 10 10 11 11 12 13 13 14 15 14 14 15 16 14 14 12 11 12 12 13 17 15 13 14 12 12 12 11 11 12 12 12 13 10 7 8 9 9 8 9 8
5 7 7 7 7 6 6 6 6 7 7 6 7 8 8 8 8 8 8 9 9 7 7 6 6 8 9 9 9 8 8 8 9 9 8 7 9 9 8 8 9 9 9 9 9 10 10 10 11 12 12 13 13 14 14 17 16 15 14 13 12 13 14 14 14 11 13 15 13 11 11 12 11 11 12 13 13 8 5 11 11 9 9 9 8
7 6 7 7 5 6 6 6 6 6 6 6 7 7 7 7 8 9 8 9 9 9 9 7 5 8 9 9 8 8 9 10 9 9 9 9 9 9 8 9 9 9 9 9 10 9 9 9 10 10 11 12 14 15 16 17 15 16 18 15 13 12 14 14 13 15 17 15 14 13 13 12 8 10 10 12 12 10 10 7 11 9 8 9 9
4 4 5 4 3 4 5 5 5 6 5 5 5 6 7 9 10 10 9 10 10 10 10 9 7 7 9 8 8 9 8 10 9 8 8 9 9 9 9 9 10 9 9 9 10 10 9 9 10 10 10 11 14 15 16 16 14 17 18 17 15 13 12 11 11 16 16 15 12 13 13 11 9 10 10 9 10 9 9 10 12 9 10 10 9
6 6 5 4 4 5 5 5 5 5 5 5 6 6 7 8 8 8 8 9 10 10 11 10 8 8 9 9 8 9 9 9 8 7 8 9 9 9 9 10 11 11 10 10 10 10 9 10 10 10 10 10 11 12 14 12 12 13 14 15 14 12 12 12 14 14 15 13 13 13 11 11 11 12 6 9 9 6 7 8 10 11 10 8 9
7 6 6 5 5 5 4 4 4 5 6 6 6 6 7 8 8 9 8 8 8 10 10 10 9 10 9 9 9 8 8 8 6 5 7 8 8 10 10 10 10 11 10 10 10 10 9 9 9 10 11 11 12 13 12 11 9 10 15 14 14 12 12 12 11 14 13 12 13 11 11 10 12 12 10 11 12 12 9 12 11 11 9 8 8
7 7 6 6 6 5 5 5 5 6 6 6 6 7 7 8 8 8 8 9 9 9 9 9 10 10 10 9 8 8 7 4 5 6 7 8 9 8 9 9 10 10 10 10 10 10 9 9 10 12 10 11 12 13 12 14 13 10 11 11 12 11 10 11 11 11 13 13 13 11 12 13 12 15 13 12 11 10 10 9 10 10 9 9 8
8 7 7 6 6 6 6 6 6 7 7 6 6 6 7 7 8 8 8 9 9 8 8 9 10 9 10 9 9 8 6 2 9 10 11 10 7 8 9 10 10 10 10 10 10 10 10 10 10 11 13 11 11 11 13 13 11 15 18 17 14 12 12 12 11 12 11 11 11 11 11 15 14 14 12 10 11 14 11 11 11 11 11 12 11
8 8 8 7 7 7 7 7 7 7 7 7 6 6 7 8 8 8 8 9 8 7 8 9 9 10 9 9 9 9 9 4 11 10 11 10 8 7 8 9 9 9 10 10 9 9 10 10 10 9 10 11 11 13 12 12 13 15 17 18 20 20 15 12 12 11 12 12 12 14 15 16 13 13 13 11 11 12 10 7 11 12 12 12 11
9 9 8 8 8 8 8 8 8 7 7 7 6 6 7 8 8 8 8 8 7 8 8 9 8 8 8 9 9 9 9 5 10 10 11 11 10 9 8 10 10 10 11 11 10 10 9 9 9 9 9 13 12 12 10 12 13 16 18 19 17 16 16 15 16 14 11 11 13 11 11 14 15 14 14 14 12 13 12 12 14 11 12 11 11
9 9 8 8 9 9 8 8 8 8 7 7 7 7 7 7 7 7 7 8 7 8 8 9 9 8 8 8 8 9 9 5 10 9 10 11 10 8 9 10 10 9 8 11 12 10 9 9 9 9 10 13 13 13 11 10 13 12 14 16 16 16 16 16 15 18 18 14 13 13 14 15 15 15 14 13 12 11 8 10 12 12 12 12 10
9 9 9 9 9 9 9 9 8 8 8 8 8 8 7 7 7 7 7 8 8 7 7 8 8 8 8 8 8 8 8 5 10 10 10 11 10 8 8 9 9 8 8 10 11 12 10 9 9 9 9 10 10 12 9 11 11 11 13 17 17 16 15 15 14 14 9 11 15 17 17 15 14 15 16 11 10 8 7 11 11 9 10 11 10
10 9 10 10 10 10 10 9 8 8 8 8 8 8 8 7 7 6 7 7 7 7 8 8 8 8 8 8 9 9 8 8 9 10 10 10 7 6 8 9 10 9 9 10 12 9 9 9 8 9 10 10 12 15 12 10 11 13 15 17 18 17 15 13 14 14 15 15 14 16 17 18 16 15 13 13 8 8 10 11 8 2 4 8 12
10 11 11 11 11 10 10 9 8 8 8 8 8 8 8 7 7 7 7 7 7 7 8 8 7 8 9 8 7 8 10 5 9 9 9 7 5 6 7 7 8 10 12 11 10 10 9 8 8 9 9 9 12 13 13 11 11 12 15 18 17 17 16 15 15 16 17 20 22 23 22 19 18 17 17 18 10 7 2 6 9 6 7 11 13
11 11 11 11 11 10 9 9 9 9 8 9 9 9 8 7 7 6 7 7 8 7 7 7 7 7 8 10 8 9 10 11 4 8 8 9 6 6 6 6 8 8 12 11 10 9 10 10 9 9 9 9 11 13 13 12 10 11 13 16 18 17 17 16 15 16 19 19 20 22 22 20 18 17 15 15 14 9 9 10 11 8 9 10 11
12 12 11 11 10 10 9 9 9 9 9 9 9 9 8 7 7 6 7 7 7 7 8 7 7 7 8 10 7 7 7 5 5 2 3 3 4 4 5 6 7 9 11 11 10 9 10 9 10 10 10 10 13 12 12 10 8 10 10 13 17 18 17 19 19 19 18 17 15 12 12 17 16 13 13 16 14 13 12 11 9 9 11 9 11
11 10 10 10 10 9 8 9 9 9 9 9 8 8 7 8 9 8 8 7 7 7 6 7 8 8 5 7 9 10 6 3 4 6 6 5 4 3 5 6 8 9 10 10 11 10 9 9 9 10 10 9 9 11 13 13 8 8 10 10 13 18 15 17 17 16 16 16 16 14 14 13 16 15 16 14 13 12 15 14 12 11 9 10 14
10 10 10 11 10 10 9 9 10 10 9 8 8 9 8 8 8 8 8 7 7 6 6 7 8 9 8 7 7 6 7 6 8 8 7 5 3 1 4 6 7 8 9 10 10 11 9 9 9 8 6 7 10 13 13 13 11 7 8 8 11 16 17 14 18 21 15 15 14 12 11 11 13 15 16 17 17 16 16 16 17 17 15 13 12
10 10 11 11 11 10 11 9 10 9 9 9 9 9 8 8 7 8 8 7 6 6 6 7 8 8 8 5 5 8 10 4 4 6 7 5 3 3 4 5 4 6 8 9 9 10 10 9 10 7 9 12 14 13 13 12 13 8 10 15 19 19 16 12 11 12 13 12 11 10 10 11 11 13 15 16 16 17 17 17 17 18 17 15 13
11 11 12 12 11 11 10 10 9 8 8 9 9 9 8 8 8 7 8 8 7 8 8 7 8 8 7 6 8 8 6 4 6 5 6 3 4 4 6 6 5 6 7 9 10 10 9 9 9 9 14 15 14 13 12 13 10 9 15 18 17 18 15 10 11 11 11 12 10 9 11 9 11 13 15 15 15 16 17 17 18 18 16 14 12
11 12 12 12 11 10 10 10 10 8 8 8 9 9 8 7 6 6 8 9 7 7 8 7 6 7 9 8 7 4 1 2 1 4 2 4 5 7 8 9 8 7 8 9 9 9 9 9 9 14 16 16 14 13 12 11 8 13 15 16 17 14 10 10 10 11 10 12 12 12 10 10 11 10 12 15 16 14 16 17 17 18 17 15 16
10 10 10 10 10 9 10 9 9 9 9 8 9 8 9 9 7 5 4 7 9 8 7 7 6 6 8 8 6 5 3 5 3 1 2 3 5 9 9 10 12 10 8 10 10 9 9 13 16 15 14 15 15 12 9 8 11 14 16 16 13 8 9 10 11 11 12 12 13 11 11 11 9 10 15 13 14 12 10 11 14 14 15 14 13
9 10 8 7 9 10 10 10 9 9 9 7 8 8 9 9 7 5 4 8 9 7 6 4 7 6 7 7 8 7 6 5 5 1 2 8 9 8 10 12 14 13 13 13 17 18 15 14 16 15 13 11 7 4 7 8 10 14 14 12 8 8 9 10 10 11 11 12 12 13 13 12 14 13 13 11 12 11 11 13 13 13 14 9 8
9 9 9 10 9 9 10 7 8 8 7 8 9 11 8 8 5 4 4 9 9 5 7 7 5 7 5 8 9 7 6 5 5 6 7 7 8 9 9 9 9 10 8 7 6 8 11 12 11 14 12 12 11 7 3 9 10 8 7 9 9 9 10 10 11 11 13 11 12 13 12 12 12 12 12 6 8 8 10 10 9 7 8 9 8
9 9 9 7 6 6 7 12 11 7 8 9 11 7 3 1 3 2 8 11 10 7 7 6 5 5 7 7 6 5 7 6 6 8 8 8 8 8 8 8 8 8 9 8 10 11 11 11 12 8 2 3 3 5 5 2 4 7 8 8 9 10 12 14 12 10 10 10 9 9 10 13 16 15 12 12 3 5 4 6 10 11 11 10 9
8 7 6 5 7 8 9 7 5 6 7 8 2 4 2 2 2 4 2 2 3 2 3 4 6 5 5 5 3 4 4 4 6 6 5 5 6 7 7 7 8 9 9 11 11 11 9 9 7 8 8 8 7 8 5 4 7 7 9 9 9 10 10 9 11 12 12 12 12 12 14 13 15 14 15 15 14 6 8 11 7 5 9 8 6
7 8 10 10 10 11 9 9 9 7 6 6 4 6 8 10 9 0 5 5 10 11 9 4 5 5 4 4 5 3 4 5 8 10 9 9 9 8 10 12 13 12 15 19 10 7 9 7 7 7 8 7 8 8 9 8 8 9 7 8 9 9 10 10 11 10 12 11 12 12 13 12 13 14 13 14 13 14 16 13 6 4 4 6 7
7 9 9 10 7 8 5 5 5 8 9 4 8 7 5 8 15 16 13 9 10 12 12 11 12 11 6 2 7 12 10 5 7 8 10 10 9 10 10 11 13 14 16 10 7 6 7 6 6 7 7 8 8 9 9 9 9 9 9 8 7 9 10 10 11 11 11 11 11 11 11 11 11 12 13 13 14 15 14 14 15 16 12 10 6
7 8 9 8 0 6 8 11 8 7 7 4 7 6 6 5 5 10 10 9 9 10 11 10 10 10 11 11 5 4 7 7 8 10 10 10 10 9 10 11 13 14 19 9 5 6 6 5 6 7 7 7 8 8 9 9 9 9 9 10 10 10 9 10 11 9 10 11 10 11 11 11 10 10 11 12 14 13 13 14 14 13 12 12 11
8 9 8 7 8 5 5 6 7 8 9 7 4 4 4 5 5 5 4 5 6 6 6 7 8 9 9 7 7 5 2 7 10 11 11 11 10 9 9 10 12 15 16 8 6 6 6 6 7 7 7 8 7 8 8 9 8 9 9 9 10 10 10 10 10 8 9 9 9 10 10 11 11 11 10 12 12 12 12 12 10 11 11 11 10
7 7 7 6 6 7 7 6 6 6 7 5 2 4 8 7 6 6 5 5 3 2 2 2 1 4 5 6 3 2 4 7 9 11 12 12 12 10 5 6 8 14 8 7 8 7 7 7 7 8 7 7 8 8 8 8 8 8 8 9 9 9 9 10 10 9 8 10 10 10 11 11 11 11 10 10 10 10 10 10 9 10 10 9 8
6 7 8 6 8 7 7 8 6 7 6 3 2 3 4 4 3 4 4 5 5 5 5 5 4 6 3 4 2 3 4 7 8 10 11 13 13 15 9 5 4 3 3 5 5 7 7 7 7 8 7 7 7 8 8 9 8 9 9 9 9 9 9 10 10 10 9 9 10 10 9 10 11 10 11 10 9 9 9 8 8 8 7 7 7
5 6 6 4 6 5 6 6 6 5 6 4 5 2 0 2 3 5 5 3 4 5 5 5 5 6 6 6 7 4 5 9 8 8 11 12 14 14 6 4 4 5 5 6 6 6 7 8 8 8 7 8 8 8 8 8 9 9 9 9 9 9 9 10 10 10 10 10 10 10 10 10 10 11 10 10 10 9 8 7 6 6 7 7 6
5 5 5 3 5 6 6 6 5 5 5 4 4 2 3 3 3 2 3 3 2 2 5 6 6 5 4 6 8 7 7 7 8 8 8 10 13 8 6 7 7 6 5 6 6 6 7 7 7 7 7 7 8 8 8 8 8 8 9 9 9 9 10 9 10 9 10 10 10 10 10 9 10 10 9 9 9 9 8 7 7 7 7 7 7
5 4 5 6 5 3 4 6 6 2 4 3 2 1 2 2 3 3 3 1 1 2 3 3 2 3 2 3 8 2 5 8 6 5 8 7 7 6 6 6 5 5 5 5 5 6 6 6 6 7 7 7 7 7 7 7 8 8 8 8 8 8 11 9 10 10 9 9 10 10 10 10 9 9 9 9 9 8 9 8 8 7 8 8 5
2 6 5 5 4 4 3 5 7 6 4 2 4 5 5 4 5 5 5 4 4 4 6 6 5 5 5 6 6 8 8 4 1 2 4 4 4 5 4 4 5 5 6 5 5 5 5 5 6 6 6 6 6 6 6 6 7 7 8 8 8 8 9 9 10 10 9 9 9 9 10 10 9 9 8 8 9 8 9 8 9 9 8 7 6
3 2 4 3 3 3 4 5 6 3 2 0 4 4 5 6 5 4 4 4 5 5 6 4 3 5 5 4 4 7 8 2 1 2 2 3 3 3 4 4 4 4 5 5 5 5 6 6 6 7 7 6 7 7 7 7 6 7 7 8 8 8 8 8 9 9 9 10 9 9 10 10 10 9 9 9 9 8 10 9 8 8 8 7 7
2 3 0 3 7 4 0 3 4 6 6 6 4 5 6 6 5 5 5 5 6 5 5 3 3 5 5 5 10 9 8 3 2 0 1 1 2 3 3 4 4 4 4 4 5 5 5 6 6 6 6 7 7 7 7 7 7 7 7 7 7 8 8 8 8 9 9 9 9 9 9 10 10 10 10 10 8 8 8 8 8 7 8 7 8
2 1 4 1 1 3 2 1 4 5 5 5 6 6 6 5 5 5 5 6 6 7 8 6 3 3 4 5 10 12 7 1 1 1 1 1 1 3 3 3 4 4 4 4 4 4 4 5 5 5 6 6 7 7 7 7 8 7 7 7 8 7 8 8 8 9 9 8 9 9 9 9 9 9 10 11 9 9 9 9 9 9 8 8 8
4 3 3 2 2 2 2 3 3 5 5 5 5 5 4 3 3 3 3 2 3 2 2 3 4 2 2 1 6 9 2 1 0 1 1 2 2 3 3 3 4 4 4 4 4 5 4 4 4 5 5 6 6 7 7 7 7 7 8 8 8 8 8 8 8 9 8 9 9 9 9 9 9 8 9 9 10 9 9 9 9 8 8 8 8
4 5 4 3 4 4 3 3 5 5 5 5 5 4 3 2 2 3 3 1 3 3 2 1 3 4 3 6 7 3 1 1 0 1 2 1 2 2 2 2 2 2 3 3 4 4 4 4 4 4 4 4 5 6 6 7 7 8 8 8 8 8 8 8 8 8 8 8 9 9 9 9 9 8 9 8 9 9 9 9 8 8 8 8 8
4 4 4 4 4 3 4 4 3 3 3 2 2 1 1 1 2 3 4 4 3 2 2 3 3 4 3 3 1 1 1 1 2 2 1 1 2 2 0 1 1 1 1 2 3 3 2 3 3 4 4 4 4 4 5 6 7 8 8 9 8 9 9 9 9 9 8 8 8 8 9 8 8 8 8 8 8 8 8 8 8 9 8 8 8
4 3 4 4 3 4 5 3 2 3 2 2 2 2 3 4 4 3 3 2 2 3 3 3 4 3 3 3 2 2 2 3 2 1 1 2 2 2 3 3 1 2 3 3 3 3 3 3 4 4 4 5 5 5 5 6 6 7 8 8 9 8 8 8 9 9 9 8 8 8 8 8 8 7 9 8 7 7 7 7 7 7 7 7 7
2 1 1 0 3 5 5 4 1 2 2 2 3 4 4 4 3 3 3 2 2 3 3 4 3 4 5 4 5 4 4 4 3 3 3 1 1 1 1 1 2 3 2 2 3 3 3 4 4 4 5 4 4 5 5 6 6 7 8 8 9 9 9 9 9 9 9 9 9 8 8 8 7 7 8 8 8 8 7 7 7 8 7 7 7
3 3 3 3 3 3 3 3 2 2 3 3 4 4 4 4 3 3 4 4 4 4 5 4 4 3 3 3 3 4 4 2 3 2 4 4 3 2 1 3 3 1 2 2 3 3 4 4 3 4 4 4 4 5 5 6 7 7 7 8 8 9 11 13 9 9 9 10 10 8 8 8 8 8 8 8 8 8 8 8 7 7 7 7 7
4 5 4 4 5 5 6 6 5 5 5 5 4 4 4 4 5 4 4 5 5 4 3 4 4 4 4 2 2 1 2 1 0 2 2 3 3 3 2 1 1 1 2 2 2 3 3 3 4 4 4 4 4 5 6 6 7 7 7 8 9 13 12 13 10 9 14 10 9 9 7 8 8 8 8 8 8 8 8 8 8 8 7 7 7
6 6 7 7 6 5 5 5 6 6 6 5 6 5 4 4 4 4 4 3 3 3 3 3 3 4 3 4 3 2 3 3 3 2 2 2 3 3 3 2 0 1 2 2 2 2 2 3 3 4 4 4 4 5 6 7 7 7 7 7 10 12 13 14 11 13 11 9 10 9 7 7 7 7 8 8 8 8 8 8 8 7 7 7 8
4 6 6 5 5 5 4 4 4 5 5 4 5 5 4 4 4 4 4 4 4 4 3 3 4 3 3 3 3 3 2 1 1 2 2 2 3 3 3 3 3 3 2 1 1 2 2 2 3 3 3 4 4 5 6 7 6 6 6 8 8 11 13 12 10 15 16 13 10 8 7 7 7 7 7 8 8 8 9 8 8 7 7 7 7
Wind_Direction
202 206 212 212 219 228 236 229 238 244 248 255 264 270 277 281 283 292 301 291 293 292 297 302 302 296 299 301 303 302 297 300 304 307 298 296 298 301 302 304 305 305 304 305 312 317 314 310 306 307 310 307 302 299 289 276 250 244 244 252 254 246 235 250 254 252 248 242 252 250 249 249 246 239 240 239 233 205 228 229 226 228 230 230 221
205 205 207 218 220 227 229 235 239 237 250 261 263 264 271 272 265 263 273 286 291 302 303 303 297 300 297 299 301 297 295 294 300 303 299 296 292 299 303 305 307 305 305 309 310 316 318 314 312 313 315 314 311 305 302 297 287 269 256 249 250 250 244 241 251 252 254 244 240 246 250 248 251 239 239 228 230 224 219 219 222 227 227 226 230
192 194 205 212 220 224 235 234 228 238 249 258 258 256 263 277 294 276 270 277 282 290 295 294 294 292 294 291 293 291 286 284 290 291 295 290 285 294 297 300 302 301 302 307 310 316 314 317 319 321 322 322 319 312 307 299 294 278 260 255 256 247 245 236 246 256 251 246 239 245 242 238 240 240 234 232 223 215 220 210 209 217 225 231 230
170 180 198 213 220 225 226 227 238 253 254 249 257 264 271 262 256 285 304 299 292 287 281 282 287 292 291 287 282 283 280 282 280 287 285 280 281 283 294 301 299 298 301 305 310 312 313 316 323 327 330 326 321 317 315 311 304 291 275 256 248 254 246 249 240 243 251 248 238 243 248 244 238 238 240 232 227 218 211 226 206 206 213 217 213
202 175 194 206 207 215 225 231 233 237 248 260 270 274 290 315 330 313 286 272 279 285 280 275 287 292 287 287 286 283 283 285 283 282 276 277 280 285 293 297 297 295 299 300 303 307 310 314 323 330 332 328 324 321 319 317 313 306 288 274 279 270 260 249 245 234 239 242 245 243 246 247 246 242 236 233 226 218 219 229 210 201 213 223 224
194 194 207 208 205 214 221 237 250 259 271 282 284 293 298 285 270 266 282 308 312 300 295 293 302 297 294 288 299 301 290 283 277 280 283 285 285 285 289 291 293 292 297 299 301 307 311 315 322 325 330 330 329 322 319 318 315 309 303 296 285 275 267 243 241 244 241 238 240 247 243 247 248 251 238 234 227 215 206 233 247 204 199 211 220
186 196 217 232 208 219 230 234 246 257 258 263 273 280 287 299 311 317 311 299 299 294 294 299 296 289 286 281 273 273 277 279 281 282 281 278 274 281 286 290 289 295 297 295 298 304 311 316 314 328 325 321 323 321 317 313 311 308 306 292 282 280 278 264 244 248 243 242 242 242 246 246 237 240 245 244 233 226 205 208 226 212 194 200 211
188 195 213 220 221 227 238 244 245 251 261 271 273 281 290 294 293 293 293 289 289 295 299 298 301 300 302 299 293 287 282 281 280 280 277 271 277 283 290 293 292 296 293 293 293 303 311 310 319 319 313 312 309 305 307 304 307 306 316 312 298 283 276 273 252 238 243 241 239 242 232 237 241 237 210 250 230 230 224 213 220 223 212 203 202
187 197 197 206 211 224 235 239 241 248 251 251 264 273 281 283 280 279 282 288 293 298 297 301 307 300 290 287 287 281 271 269 280 295 287 286 290 287 286 288 291 293 293 295 295 300 307 312 314 319 316 303 290 282 281 284 294 303 311 313 314 311 296 286 280 256 243 241 246 242 242 236 235 240 226 217 224 220 212 221 220 216 212 203 209
186 196 202 202 206 214 218 223 234 245 250 255 260 271 274 282 288 288 292 295 295 296 305 299 287 283 287 291 289 281 278 303 32 306 301 281 287 290 290 290 291 290 291 292 289 296 308 313 313 313 307 294 283 274 278 292 288 281 295 301 303 302 300 291 278 266 251 240 236 232 235 238 234 234 233 223 226 223 218 220 223 218 210 214 208
190 196 202 204 206 207 212 218 229 236 243 248 253 262 275 278 278 284 290 293 296 295 286 288 292 294 294 293 288 287 289 237 178 220 227 237 256 277 282 286 288 289 289 287 292 297 303 308 309 307 307 304 302 300 297 291 295 301 300 297 287 277 290 291 280 272 267 260 251 242 227 235 236 234 229 225 220 230 214 206 229 219 215 215 220
193 197 200 201 203 207 212 221 224 234 238 246 252 259 272 278 278 280 286 289 291 293 294 296 294 288 288 291 293 290 289 165 186 206 220 215 223 256 276 284 286 289 291 292 290 295 305 309 307 304 304 310 310 309 300 294 296 302 308 305 299 288 257 246 271 277 265 262 258 248 235 230 232 234 232 224 227 231 229 223 226 220 215 213 216
192 199 199 201 202 203 213 219 225 230 235 241 249 259 263 271 272 275 284 292 296 293 289 283 285 291 291 292 289 286 285 195 190 202 215 217 217 233 265 274 281 289 297 295 292 296 305 305 302 298 300 307 305 308 305 312 312 317 317 310 297 293 299 271 233 237 256 256 254 256 247 240 236 229 230 232 225 228 220 219 222 218 220 219 218
195 199 201 203 203 206 210 219 226 231 233 238 245 254 264 265 271 279 286 284 282 288 294 291 293 292 289 285 283 283 285 216 195 201 217 217 221 223 261 271 280 297 311 299 295 291 293 298 300 297 298 304 307 309 314 317 316 318 315 318 318 313 306 303 283 238 230 243 246 247 243 243 248 247 235 227 225 228 215 226 227 220 214 217 214
199 200 202 203 207 210 213 217 227 231 234 239 245 253 255 259 267 277 282 290 291 292 299 295 285 288 293 296 296 299 296 161 189 203 214 218 217 221 260 267 277 277 269 277 279 277 290 291 295 291 289 297 298 306 308 314 320 312 307 316 322 318 313 313 316 317 288 236 235 239 245 244 249 251 245 240 235 237 216 230 228 222 232 220 221
205 205 206 206 209 211 214 218 225 232 239 243 248 247 248 254 262 267 274 277 286 291 283 286 288 288 293 294 294 297 300 168 201 203 214 218 200 233 254 266 276 285 278 267 272 282 287 287 290 288 287 293 296 303 309 323 318 315 313 319 323 319 313 302 292 284 288 290 270 252 241 235 233 238 246 242 223 240 235 239 245 211 249 250 234
209 207 209 210 212 211 213 218 223 232 236 242 244 243 243 251 256 254 262 273 276 281 289 289 295 289 290 300 302 301 292 238 199 208 212 198 191 254 270 288 306 307 302 301 302 292 286 281 285 284 284 285 292 301 314 336 317 313 318 322 323 321 317 315 304 296 291 289 283 268 258 247 236 229 237 256 231 225 267 262 235 195 212 229 227
209 210 211 214 214 214 214 215 224 232 236 241 240 241 243 243 250 251 264 279 280 283 288 283 280 293 298 295 338 329 317 325 228 204 202 189 227 274 291 295 294 292 292 304 306 300 296 281 265 277 279 278 291 304 318 330 319 313 315 319 320 322 321 321 318 310 299 286 276 267 253 241 238 237 228 226 222 203 211 223 237 238 226 220 232
212 210 211 214 216 218 216 218 227 237 236 236 240 246 244 246 250 256 266 260 266 272 269 282 295 300 321 326 320 305 304 341 282 204 174 167 228 269 285 286 287 294 307 309 309 307 304 300 275 260 266 280 294 307 317 326 312 306 305 312 318 324 326 324 318 312 310 306 294 270 241 234 230 228 229 221 219 213 214 218 216 224 233 230 231
215 212 213 214 216 219 222 223 227 236 241 240 243 245 244 244 244 244 244 262 282 292 301 299 298 296 307 294 297 299 306 338 250 167 151 169 230 297 293 285 296 305 307 309 308 303 305 304 296 273 258 272 300 313 316 317 311 305 304 306 318 321 320 316 309 302 297 298 288 268 262 239 223 221 227 224 213 215 223 219 218 222 224 235 234
214 210 213 217 215 214 220 224 229 230 233 243 244 240 236 241 247 251 260 265 270 279 288 288 291 289 296 297 289 306 315 265 168 152 116 106 120 268 289 293 301 308 307 307 304 308 310 311 313 321 13 345 326 319 312 309 309 303 295 299 310 304 306 311 313 314 313 313 311 264 248 245 231 225 224 226 224 218 220 224 225 223 220 222 229
213 210 215 216 218 215 216 216 228 228 229 231 235 240 241 249 258 261 262 264 260 270 280 279 281 293 290 280 315 289 238 224 117 125 121 113 128 188 285 299 335 308 301 292 297 302 305 308 307 336 356 333 321 314 306 303 307 307 297 302 305 308 311 309 311 321 323 330 330 324 263 232 231 228 228 225 219 217 218 218 220 224 220 223 224
215 211 215 214 215 219 218 216 220 222 224 227 234 237 239 240 241 257 261 255 261 256 256 266 273 281 287 290 284 276 359 58 19 110 129 131 186 236 240 275 304 282 281 289 292 298 297 300 306 335 330 316 307 304 299 300 306 307 308 310 309 308 310 328 327 328 333 334 332 351 351 299 243 223 221 218 220 215 216 215 217 216 218 215 219
216 214 213 214 215 220 220 216 217 224 227 228 231 235 236 237 247 246 245 241 237 244 247 251 264 273 292 306 284 306 192 160 52 61 147 170 239 244 248 247 256 273 289 287 286 289 297 303 308 310 306 301 294 294 297 297 302 307 312 314 316 317 329 331 341 337 335 342 352 357 347 346 320 251 226 223 219 210 212 213 213 215 213 213 217
221 220 220 222 226 227 221 219 221 220 229 233 239 235 239 230 237 240 267 277 253 247 253 247 265 306 294 277 287 277 315 147 161 122 215 314 301 271 253 259 267 257 260 272 278 284 292 297 293 291 290 289 287 281 290 317 325 320 316 315 314 342 339 346 341 346 347 351 352 342 347 339 324 303 248 213 214 210 208 211 213 216 214 214 218
227 229 224 225 232 230 227 220 225 230 234 243 251 238 242 241 218 217 238 249 245 247 263 269 278 278 276 287 298 319 315 338 89 72 348 356 333 346 313 286 275 266 248 262 269 277 279 282 285 282 275 270 270 302 4 331 329 330 315 322 338 340 350 352 353 350 352 354 347 348 340 337 339 326 298 222 206 201 206 215 210 209 213 207 203
233 233 227 231 223 223 232 230 235 228 229 239 246 243 233 237 225 191 215 258 255 231 236 259 242 237 270 299 309 310 317 334 42 24 12 351 342 331 324 318 310 297 289 300 312 317 309 304 295 291 280 281 291 338 28 334 342 326 345 345 342 349 350 354 355 353 356 348 352 347 337 335 340 347 343 246 188 200 194 198 197 206 210 197 193
240 234 235 233 228 228 229 235 238 229 223 231 246 244 260 185 127 231 255 250 234 233 255 268 294 304 294 297 316 325 321 328 34 12 355 343 331 328 323 325 332 334 317 331 333 313 305 295 288 292 297 254 208 199 152 197 296 347 352 348 349 348 348 347 344 351 352 353 349 340 342 353 7 352 353 8 280 213 200 208 208 196 193 162 168
238 251 252 223 233 232 232 222 224 237 246 253 62 47 7 306 147 149 50 353 352 293 262 258 275 289 301 320 317 311 320 351 29 10 335 319 300 312 322 328 330 319 318 322 313 301 291 292 316 346 352 356 356 357 1 17 16 358 357 356 357 356 354 351 353 353 352 352 358 1 359 1 7 354 3 22 11 330 208 205 183 158 167 170 162
247 237 243 236 230 231 215 226 219 221 228 246 143 101 68 46 9 258 127 61 60 50 58 44 22 346 333 37 36 356 351 19 6 340 325 311 298 276 269 278 280 283 291 299 290 278 283 319 359 4 354 6 5 3 356 3 8 359 358 356 0 2 356 358 353 345 355 353 357 2 6 1 8 360 6 14 16 29 33 32 33 67 134 173 189
260 266 267 263 301 309 281 183 254 253 244 183 177 176 147 61 38 39 55 74 72 77 82 81 62 49 23 61 83 71 69 44 353 325 318 308 299 289 285 281 284 285 289 300 285 271 322 3 9 12 6 10 16 6 2 3 4 5 359 357 1 354 357 358 354 347 359 357 359 1 6 6 5 4 7 16 21 27 32 37 44 38 28 24 35
266 266 267 283 229 216 229 259 262 279 275 211 161 221 187 134 95 48 37 44 56 69 76 74 70 66 55 42 30 118 63 21 343 324 313 311 303 295 284 284 285 287 298 258 255 317 353 17 22 21 14 14 19 16 12 8 7 6 0 1 2 1 357 359 345 334 359 5 2 4 2 2 2 8 11 20 25 26 32 40 41 43 42 39 38
278 284 291 277 256 265 269 275 274 277 273 276 157 148 251 195 162 147 100 68 55 50 45 73 89 83 67 59 57 75 325 311 317 316 318 316 315 303 290 288 282 289 319 336 352 1 12 19 27 23 19 18 16 16 13 9 11 9 5 5 2 1 2 354 333 339 1 5 7 8 4 4 1 6 13 24 27 28 29 39 39 42 44 43 35
276 280 284 299 297 296 282 263 267 269 262 245 302 200 208 224 223 150 152 154 134 108 96 343 8 115 122 120 123 256 283 291 302 313 322 330 327 326 307 279 283 285 299 9 9 16 17 19 29 25 19 20 13 8 8 7 6 7 5 7 2 358 359 1 356 358 357 4 7 7 8 6 8 10 15 19 24 27 29 31 33 38 45 44 39
274 275 277 289 294 287 279 283 264 246 260 282 212 204 12 12 359 123 183 183 177 172 161 167 202 225 222 185 163 194 267 277 297 313 327 334 332 321 298 234 253 277 1 13 29 22 23 19 28 24 22 20 16 12 8 6 2 3 1 2 6 2 358 4 353 356 8 4 10 7 6 11 11 9 16 21 23 20 22 25 27 28 38 43 36
273 277 289 240 249 263 272 265 280 305 300 299 283 327 75 133 183 178 180 184 189 172 153 158 169 201 214 132 156 193 253 267 278 309 318 343 338 326 336 341 19 33 9 24 22 23 29 25 26 30 25 26 17 21 13 9 7 2 1 360 7 7 1 5 357 1 2 5 6 2 6 12 10 12 12 18 24 23 13 15 23 22 25 34 34
281 282 265 315 345 315 319 315 307 340 335 302 292 69 117 145 142 158 177 167 173 166 143 142 144 145 206 190 173 187 239 250 239 249 298 325 310 306 26 12 29 35 32 25 23 30 25 27 27 27 27 25 27 21 19 15 6 4 3 6 4 9 3 7 3 1 3 6 5 7 8 13 14 10 3 13 16 13 17 13 8 14 28 28 28
291 301 320 1 327 329 318 314 310 8 269 271 269 277 61 89 96 101 79 131 77 127 113 85 24 109 143 31 342 325 200 231 252 276 264 286 353 20 40 45 33 36 34 33 28 31 33 20 27 26 21 29 27 22 17 12 9 7 6 4 4 19 2 2 5 3 7 8 8 6 6 8 15 11 5 8 11 14 11 11 11 15 15 32 36
268 77 45 18 309 303 312 296 267 256 247 217 54 70 111 116 106 96 102 101 100 79 74 59 41 31 30 15 345 338 302 247 270 348 12 15 7 20 38 50 55 48 41 31 26 25 32 30 26 25 20 17 21 19 15 13 15 12 6 5 8 9 11 10 6 3 6 9 8 8 5 4 8 13 6 7 5 10 9 12 12 13 18 22 21
287 262 60 360 267 270 286 288 279 311 27 137 99 107 91 90 101 115 129 97 87 79 74 82 80 54 28 12 348 335 307 286 288 318 351 25 20 21 33 43 54 54 49 35 23 17 19 30 20 19 18 18 16 14 17 12 15 17 12 14 10 10 10 9 8 7 6 4 5 5 7 2 3 8 9 19 15 12 6 4 9 12 10 11 18
41 45 130 53 13 300 51 328 17 22 39 42 90 111 114 111 104 113 125 119 122 135 148 141 82 56 38 352 312 310 312 15 29 20 7 23 26 33 32 37 28 36 49 42 21 21 27 23 21 20 17 12 12 11 16 15 10 14 17 15 16 10 8 11 9 8 2 1 2 2 6 3 1 3 8 8 20 23 17 360 5 10 12 16 19
87 123 300 360 15 356 43 73 79 75 92 114 111 118 116 119 141 148 157 182 175 170 139 111 92 79 71 340 312 321 318 112 243 192 253 299 45 59 51 40 46 32 26 32 22 15 20 34 31 25 21 17 13 10 11 16 9 12 12 16 15 11 11 8 7 6 2 360 360 357 359 3 2 6 2 353 3 16 23 19 13 9 9 6 23
69 91 106 72 59 82 85 83 100 107 107 99 104 103 129 151 165 176 172 42 18 4 48 117 121 127 104 255 298 294 268 132 180 339 67 88 84 79 60 44 43 43 31 28 26 14 11 30 36 34 26 24 20 13 14 15 12 10 13 11 16 11 11 7 6 5 360 358 356 356 355 360 360 8 7 5 1 6 19 18 19 15 13 9 14
111 95 93 100 106 98 80 99 98 93 77 66 67 58 66 91 80 41 44 115 180 207 218 195 153 163 187 185 220 240 62 287 122 102 110 115 90 80 73 61 41 46 47 50 39 22 18 22 33 40 38 31 28 28 21 19 16 20 16 10 15 11 9 6 2 359 359 352 351 351 355 356 360 8 5 6 7 5 12 12 13 16 15 14 12
107 119 134 147 160 160 141 126 124 118 113 109 113 133 143 157 183 202 199 201 217 221 209 181 185 193 189 193 197 92 141 135 180 163 148 109 140 131 118 82 79 79 90 85 63 39 32 34 38 37 41 42 32 37 35 33 32 26 22 17 11 11 7 358 350 347 351 348 348 352 353 355 360 8 4 1 10 7 9 8 8 5 11 15 11
132 144 147 153 161 171 171 174 138 120 160 186 142 194 205 198 187 204 221 221 195 197 204 196 200 171 177 181 177 176 183 197 185 182 172 184 211 182 195 138 133 74 35 28 48 54 35 24 40 40 42 50 34 31 45 44 39 39 31 24 14 9 6 351 341 341 349 348 345 347 353 353 1 5 7 358 8 8 6 10 8 10 9 6 5
104 89 88 46 57 40 20 61 180 251 238 199 194 204 221 226 207 199 218 246 212 195 205 193 179 188 182 176 178 186 191 205 193 172 181 205 296 308 2 332 43 40 42 51 13 35 58 46 44 57 48 36 56 48 42 43 39 37 38 29 20 5 5 349 337 346 351 344 331 339 352 349 360 6 7 3 6 8 7 12 8 8 8 6 1
142 146 145 138 148 174 180 205 180 204 231 222 226 232 231 234 220 217 198 182 209 210 204 171 186 177 174 164 177 178 187 186 161 176 151 155 157 173 293 14 47 97 104 81 67 46 38 43 45 48 63 56 48 60 56 52 50 38 35 32 24 6 348 343 338 351 351 328 316 343 357 357 360 4 9 4 7 8 6 7 5 5 9 10 6
195 180 181 195 222 217 197 209 207 222 233 231 217 246 252 245 242 212 193 199 200 197 176 168 177 176 178 155 159 109 81 48 53 83 101 113 122 120 112 111 128 360 45 68 73 65 67 60 43 46 43 55 55 63 70 60 52 48 38 31 8 355 349 344 336 355 334 328 335 334 359 359 360 2 9 2 5 12 8 4 2 359 7 14 8
222 216 221 218 211 222 239 245 247 244 231 247 264 242 219 245 234 222 199 190 170 192 190 170 170 168 163 164 183 174 173 186 173 168 125 121 121 117 110 109 87 73 72 81 63 51 49 68 65 53 51 46 54 65 70 64 59 52 43 22 358 348 354 345 342 348 346 340 325 323 358 360 360 6 12 4 358 10 8 6 359 359 4 12 10
326 336 329 315 308 307 303 283 261 265 291 266 237 253 252 238 224 202 203 185 188 189 167 182 179 167 160 149 152 183 175 131 132 139 145 130 123 136 140 140 148 150 128 91 96 102 70 39 43 50 49 60 49 68 68 64 56 67 62 33 10 358 356 351 349 340 336 332 318 323 4 356 6 2 18 10 358 359 357 357 360 0 8 11 11